Tyler, TX

1:50 PM CST on November 21, 2017 (GMT -0600)
Tyler Pounds

Weather History for KTYR - February, 2012

Change the Weather History Date:

Monday, February 27, 2012

  Actual Average Record
Temperature  
Mean Temperature 64 °F 53 °F  
Max Temperature 72 °F 63 °F 87 °F (1986)
Min Temperature 55 °F 43 °F 20 °F (2002)
Degree Days  
Heating Degree Days 1 12  
Month to date heating degree days 343 401  
Since 1 July heating degree days 1564 1879  
Cooling Degree Days 0 0  
Month to date cooling degree days 16 0  
Year to date cooling degree days 18 4  
Growing Degree Days 14 (Base 50)    
Moisture  
Dew Point 50 °F    
Average Humidity 64    
Maximum Humidity 83    
Minimum Humidity 44    
Precipitation  
Precipitation 0.00 in 0.15 in 1.89 in (2001)
Month to date precipitation 2.86 3.65  
Year to date precipitation 6.11 6.71  
Snow  
Snow 0.00 in - - ()
Month to date snowfall 0.0  
Since 1 July snowfall 0.0  
Snow Depth 0.00 in    
Sea Level Pressure  
Sea Level Pressure 30.24 in    
Wind  
Wind Speed 7 mph (ESE)    
Max Wind Speed 15 mph    
Max Gust Speed 20 mph    
Visibility 10 miles    
Events      
T = Trace of Precipitation, MM = Missing Value Source: NWS Daily Summary

Daily Weather History Graph

Daily Weather History Graph

Search for Another Location

Airport or City:

Trip Planner

Search our weather history database for the weather conditions in past years. The results will help you decide how hot, cold, wet, or windy it might be!

Date:

Astronomy

Feb. 27, 2012 Rise Set
Actual Time 6:51 AM CST 6:17 PM CST
Civil Twilight 6:27 AM CST 6:41 PM CST
Nautical Twilight 5:58 AM CST 7:10 PM CST
Astronomical Twilight 5:30 AM CST 7:38 PM CST
Moon 9:44 AM CST (2/27) 11:47 PM CST (2/27)
Length of Visible Light 12h 14m
Length of Day
11h 25m
Waxing Crescent, 29% of the Moon is Illuminated
Feb 27
Waxing Crescent
Feb 29
First Quarter
Mar 8
Full
Mar 14
Last Quarter
Mar 22
New

Hourly Weather History & Observations

Time (CST) Temp. Dew Point Humidity Pressure Visibility Wind Dir Wind Speed Gust Speed Precip Events Conditions
12:53 AM 55.9 °F 48.0 °F 75% 30.20 in 10.0 mi South 3.5 mph - N/A   Overcast
1:53 AM 57.0 °F 48.0 °F 72% 30.21 in 10.0 mi SE 4.6 mph - N/A   Overcast
2:53 AM 57.0 °F 48.0 °F 72% 30.22 in 10.0 mi ESE 4.6 mph - N/A   Overcast
3:53 AM 57.0 °F 48.0 °F 72% 30.22 in 10.0 mi East 3.5 mph - N/A   Overcast
4:53 AM 57.0 °F 48.0 °F 72% 30.24 in 10.0 mi ESE 4.6 mph - N/A   Overcast
5:53 AM 57.0 °F 48.0 °F 72% 30.25 in 10.0 mi East 3.5 mph - N/A   Overcast
6:53 AM 55.9 °F 48.9 °F 77% 30.27 in 10.0 mi East 3.5 mph - N/A   Overcast
7:53 AM 55.9 °F 48.9 °F 77% 30.28 in 10.0 mi East 3.5 mph - N/A   Overcast
8:53 AM 57.0 °F 50.0 °F 77% 30.31 in 10.0 mi NE 3.5 mph - N/A   Overcast
9:53 AM 57.9 °F 50.0 °F 75% 30.32 in 10.0 mi East 3.5 mph - N/A   Overcast
10:53 AM 63.0 °F 51.1 °F 65% 30.32 in 10.0 mi East 5.8 mph - N/A   Mostly Cloudy
11:53 AM 68.0 °F 51.1 °F 55% 30.29 in 10.0 mi East 13.8 mph - N/A   Clear
12:53 PM 69.1 °F 50.0 °F 51% 30.25 in 10.0 mi ENE 11.5 mph - N/A   Mostly Cloudy
1:53 PM 70.0 °F 50.0 °F 49% 30.23 in 10.0 mi ESE 9.2 mph - N/A   Scattered Clouds
2:53 PM 72.0 °F 50.0 °F 46% 30.20 in 10.0 mi ESE 8.1 mph - N/A   Mostly Cloudy
3:53 PM 71.1 °F 50.0 °F 47% 30.19 in 10.0 mi SE 5.8 mph - N/A   Scattered Clouds
4:53 PM 71.1 °F 48.9 °F 45% 30.19 in 10.0 mi SE 8.1 mph - N/A   Clear
5:53 PM 70.0 °F 48.9 °F 47% 30.19 in 10.0 mi East 9.2 mph - N/A   Mostly Cloudy
6:53 PM 66.9 °F 51.1 °F 57% 30.21 in 10.0 mi ESE 5.8 mph - N/A   Overcast
7:53 PM 66.9 °F 50.0 °F 54% 30.22 in 10.0 mi ESE 6.9 mph - N/A   Overcast
8:53 PM 66.9 °F 50.0 °F 54% 30.20 in 10.0 mi East 8.1 mph - N/A   Overcast
9:53 PM 64.9 °F 51.1 °F 61% 30.22 in 10.0 mi SE 11.5 mph - N/A   Mostly Cloudy
10:53 PM 64.0 °F 51.1 °F 63% 30.22 in 10.0 mi SE 8.1 mph - N/A   Scattered Clouds
11:53 PM 62.1 °F 51.1 °F 67% 30.19 in 10.0 mi ESE 6.9 mph - N/A   Mostly Cloudy